アトラス彗星

C/2025 Q1 ( ATLAS )

English version
Home page
Updated on September 7, 2025

---------------------------------------------------------------------

・ プロフィール

発見日 2025年8月27日
発見光度 19.8等
発見者 Asteroid Terrestrial-Impact Last Alert System (ATLAS) search program

・ 軌道要素

Epoch 2025 May 5.0 TT = JDT 2460800.5                                           
T 2024 July 11.98717 TT                                 Veres                   
q  10.0999569            (2000.0)            P               Q                  
z  +0.0008386      Peri.  280.23455     -0.06797208     +0.86410374             
 +/-0.0000155      Node   326.95867     -0.03682383     -0.50169120             
e   0.9915299      Incl.   66.15493     -0.99700742     -0.04038159             
From 18 observations 2020 Jan. 31-2025 Sept. 2, mean residual 0".6.             

・ 光度変化

        m1 = 4.5 + 5 logΔ + 10.0 log r

---------------------------------------------------------------------

軌道要素はM.P.E.C. 2025-R19に掲載されたものです。
光度グラフはComet for Windowsで作成したものです。

---------------------------------------------------------------------

Copyright(C) Seiichi Yoshida (comet@aerith.net). All rights reserved.